This is the latest recevied weather packets stored in our database for station/object W6SNO-1. If no packets are shown the sender has not sent any weather packets the latest 1 day(s).
| Time | Temp. | Humidity | Pressure | Rain* | Wind** | Luminosity | Snow |
|---|---|---|---|---|---|---|---|
| 1778086337 | 15° C | 78% | 1020.6 hPa | 0 mm | - | 197 W/m² | - |
| 1778083305 | 13.89° C | 82% | 1020.8 hPa | 0 mm | - | 117 W/m² | - |
| 1778081562 | 13.33° C | 84% | 1020.7 hPa | 0 mm | - | 79 W/m² | - |
| 1778081259 | 13.33° C | 84% | 1020.6 hPa | 0 mm | - | 68 W/m² | - |
| 1778080048 | 13.33° C | 85% | 1020.6 hPa | 0 mm | - | 55 W/m² | - |
| 1778079745 | 13.33° C | 85% | 1020.6 hPa | 0 mm | - | 56 W/m² | - |
| 1778078533 | 13.33° C | 85% | 1020.8 hPa | 0 mm | - | 38 W/m² | - |
| 1778077928 | 13.33° C | 86% | 1020.7 hPa | 0 mm | - | 37 W/m² | - |
| 1778076417 | 13.33° C | 85% | 1020.5 hPa | 0 mm | - | 15 W/m² | - |
| 1778076114 | 13.33° C | 85% | 1020.3 hPa | 0 mm | - | 15 W/m² | - |
| 1778075507 | 13.33° C | 86% | 1020.2 hPa | 0 mm | - | 12 W/m² | - |
| 1778074900 | 12.78° C | 86% | 1020 hPa | 0 mm | - | 9 W/m² | - |
| 1778071872 | 12.78° C | 86% | 1019.5 hPa | 0 mm | - | 0 W/m² | - |
| 1778069149 | 12.78° C | 86% | 1019.5 hPa | 0 mm | - | 0 W/m² | - |
| 1778068242 | 12.78° C | 86% | 1019.2 hPa | 0 mm | - | 0 W/m² | - |
| 1778067939 | 13.33° C | 85% | 1019.3 hPa | 0 mm | - | 0 W/m² | - |
| 1778067335 | 13.33° C | 85% | 1019.2 hPa | 0 mm | - | 0 W/m² | - |
| 1778067032 | 13.33° C | 85% | 1019.2 hPa | 0 mm | - | 0 W/m² | - |
| 1778066124 | 13.33° C | 86% | 1019.1 hPa | 0 mm | - | 0 W/m² | - |
| 1778064911 | 13.33° C | 85% | 1019 hPa | 0 mm | - | 0 W/m² | - |
| 1778064307 | 13.33° C | 85% | 1019.1 hPa | 0 mm | - | 0 W/m² | - |
| 1778063398 | 13.33° C | 85% | 1019.2 hPa | 0 mm | - | 0 W/m² | - |
| 1778063096 | 13.33° C | 85% | 1019 hPa | 0 mm | - | 0 W/m² | - |
| 1778062187 | 13.33° C | 85% | 1019.1 hPa | 0 mm | - | 0 W/m² | - |
| 1778060977 | 13.33° C | 85% | 1018.8 hPa | 0 mm | - | 0 W/m² | - |
* Rain latest hour (hover to see other rain measurements)
** Current wind speed in m/s (hover to see current wind gust speed)